Time,TemperatureF,DewpointF,PressureIn,WindDirection,WindDirectionDegrees,WindSpeedMPH,WindSpeedGustMPH,Humidity,HourlyPrecipIn,Conditions,Clouds,dailyrainin,SoftwareType,DateUTC
2013-02-14 01:09:00,50.9,31.4,29.95,SW,224,6.3,8.3,47,0.00, ,SKC,-99.99,VWS V12.07,2013-02-13 23:09:00,
2013-02-14 01:14:00,51.1,31.6,29.95,SW,220,4.0,8.3,47,0.00, ,SKC,-99.99,VWS V12.07,2013-02-13 23:14:00,
2013-02-14 01:19:00,51.3,31.2,29.95,WSW,237,3.1,8.3,46,0.00, ,SKC,-99.99,VWS V12.07,2013-02-13 23:19:00,
2013-02-14 01:25:00,51.3,30.7,29.95,West,261,3.6,6.3,45,0.00, ,SKC,-99.99,VWS V12.07,2013-02-13 23:25:00,
2013-02-14 01:31:00,51.4,30.8,29.95,SSE,156,2.7,8.1,45,0.00, ,SKC,-99.99,VWS V12.07,2013-02-13 23:31:00,
2013-02-14 01:37:00,51.3,30.7,29.95,SW,225,0.0,8.1,45,0.00, ,SKC,-99.99,VWS V12.07,2013-02-13 23:37:00,
2013-02-14 08:45:00,48.4,43.2,29.86,NE,41,0.0,0.0,82,0.08, ,SKC,-99.99,VWS V12.07,2013-02-14 06:45:00,
2013-02-14 08:48:00,48.4,43.2,29.86,NE,41,0.0,0.0,82,0.08, ,SKC,-99.99,VWS V12.07,2013-02-14 06:48:00,
2013-02-14 08:49:00,48.4,43.2,29.86,NE,41,0.0,0.0,82,0.08, ,SKC,-99.99,VWS V12.07,2013-02-14 06:49:00,
2013-02-14 10:34:00,46.9,43.3,29.86,NNE,33,5.4,5.4,87,0.12, ,SKC,-99.99,VWS V12.07,2013-02-14 08:34:00,
2013-02-14 10:37:00,46.9,43.3,29.86,ENE,58,2.7,5.8,87,0.16, ,SKC,-99.99,VWS V12.07,2013-02-14 08:37:00,
2013-02-14 10:42:00,46.9,43.3,29.86,NNE,17,5.4,5.4,87,0.16, ,SKC,-99.99,VWS V12.07,2013-02-14 08:42:00,
2013-02-14 10:47:00,46.8,43.1,29.86,East,91,2.2,8.1,87,0.16, ,SKC,-99.99,VWS V12.07,2013-02-14 08:47:00,
2013-02-14 10:52:00,46.8,43.1,29.86,East,84,4.0,8.1,87,0.20, ,SKC,-99.99,VWS V12.07,2013-02-14 08:52:00,
2013-02-14 10:57:00,46.6,43.2,29.86,SE,129,3.1,8.1,88,0.20, ,SKC,-99.99,VWS V12.07,2013-02-14 08:57:00,
2013-02-14 11:02:00,46.6,43.2,29.83,East,81,2.2,4.0,88,0.28, ,SKC,-99.99,VWS V12.07,2013-02-14 09:02:00,
2013-02-14 14:16:00,48.9,46.4,29.77,NE,38,0.0,0.0,91,0.35, ,SKC,-99.99,VWS V12.07,2013-02-14 12:16:00,
2013-02-14 14:21:00,48.7,45.9,29.77,NNE,27,3.6,5.8,90,0.16, ,SKC,-99.99,VWS V12.07,2013-02-14 12:21:00,
2013-02-14 14:26:00,48.2,45.1,29.77,NE,44,2.7,5.8,89,0.16, ,SKC,-99.99,VWS V12.07,2013-02-14 12:26:00,
2013-02-14 14:32:00,48.2,45.4,29.77,NE,39,0.0,5.8,90,0.16, ,SKC,-99.99,VWS V12.07,2013-02-14 12:32:00,
2013-02-14 14:37:00,48.2,45.4,29.77,NE,44,0.0,6.3,90,0.16, ,SKC,-99.99,VWS V12.07,2013-02-14 12:37:00,
2013-02-14 14:42:00,48.6,46.1,29.77,NE,44,0.0,0.0,91,0.16, ,SKC,-99.99,VWS V12.07,2013-02-14 12:42:00,
2013-02-14 16:12:00,48.4,45.6,29.77,NNE,32,0.0,0.0,90,0.16, ,SKC,-99.99,VWS V12.07,2013-02-14 14:12:00,
2013-02-14 16:17:00,48.2,45.4,29.77,NNE,15,0.0,3.1,90,0.16, ,SKC,-99.99,VWS V12.07,2013-02-14 14:17:00,
2013-02-14 16:22:00,48.0,45.2,29.77,NNE,13,0.0,2.7,90,0.00, ,SKC,-99.99,VWS V12.07,2013-02-14 14:22:00,
2013-02-14 16:27:00,48.0,45.2,29.77,ENE,64,0.0,2.7,90,0.00, ,SKC,-99.99,VWS V12.07,2013-02-14 14:27:00,
2013-02-14 16:32:00,48.2,45.4,29.77,East,87,0.0,2.7,90,0.00, ,SKC,-99.99,VWS V12.07,2013-02-14 14:32:00,
2013-02-14 16:37:00,48.0,45.5,29.77,NE,36,0.0,2.7,91,0.00, ,SKC,-99.99,VWS V12.07,2013-02-14 14:37:00,
2013-02-14 16:42:00,48.0,45.5,29.77,NE,42,0.0,0.0,91,0.00, ,SKC,-99.99,VWS V12.07,2013-02-14 14:42:00,
2013-02-14 16:47:00,48.0,45.5,29.74,NE,42,0.0,0.0,91,0.00, ,SKC,-99.99,VWS V12.07,2013-02-14 14:47:00,
2013-02-14 16:52:00,48.0,45.5,29.74,NE,42,0.0,0.0,91,0.00, ,SKC,-99.99,VWS V12.07,2013-02-14 14:52:00,
2013-02-14 16:57:00,48.0,45.5,29.74,NE,42,0.0,0.0,91,0.00, ,SKC,-99.99,VWS V12.07,2013-02-14 14:57:00,
2013-02-14 17:02:00,47.7,44.9,29.74,NE,42,0.0,0.0,90,0.00, ,SKC,-99.99,VWS V12.07,2013-02-14 15:02:00,
2013-02-14 17:08:00,47.3,43.9,29.74,NE,42,0.0,0.0,88,0.00, ,SKC,-99.99,VWS V12.07,2013-02-14 15:08:00,
2013-02-14 17:13:00,47.8,44.8,29.74,NE,42,0.0,0.0,89,0.00, ,SKC,-99.99,VWS V12.07,2013-02-14 15:13:00,
2013-02-14 17:18:00,48.0,45.2,29.74,NE,42,0.0,0.0,90,0.00, ,SKC,-99.99,VWS V12.07,2013-02-14 15:18:00,
2013-02-14 17:23:00,48.2,45.4,29.74,NE,42,0.0,0.0,90,0.00, ,SKC,-99.99,VWS V12.07,2013-02-14 15:23:00,
2013-02-14 17:28:00,48.4,45.6,29.74,NE,42,0.0,0.0,90,0.00, ,SKC,-99.99,VWS V12.07,2013-02-14 15:28:00,
2013-02-14 17:33:00,48.2,45.4,29.74,NE,42,0.0,0.0,90,0.00, ,SKC,-99.99,VWS V12.07,2013-02-14 15:33:00,
2013-02-14 17:38:00,48.2,45.4,29.74,NE,42,0.0,0.0,90,0.00, ,SKC,-99.99,VWS V12.07,2013-02-14 15:38:00,
2013-02-14 17:43:00,48.2,45.4,29.74,NE,42,0.0,0.0,90,0.00, ,SKC,-99.99,VWS V12.07,2013-02-14 15:43:00,
2013-02-14 17:48:00,48.0,45.2,29.74,NE,42,0.0,0.0,90,0.00, ,SKC,-99.99,VWS V12.07,2013-02-14 15:48:00,
2013-02-14 17:53:00,48.0,45.2,29.74,NE,42,0.0,2.7,90,0.00, ,SKC,-99.99,VWS V12.07,2013-02-14 15:53:00,
2013-02-14 19:45:00,47.3,44.8,29.74,West,275,0.0,0.0,91,0.04, ,SKC,-99.99,VWS V12.07,2013-02-14 17:45:00,
2013-02-14 19:51:00,47.3,44.8,29.74,West,275,0.0,2.2,91,0.04, ,SKC,-99.99,VWS V12.07,2013-02-14 17:51:00,
2013-02-14 19:56:00,47.3,44.8,29.74,West,275,2.2,2.7,91,0.04, ,SKC,-99.99,VWS V12.07,2013-02-14 17:56:00,
2013-02-14 21:48:00,47.1,44.3,29.74,WSW,245,2.2,2.7,90,0.04, ,SKC,-99.99,VWS V12.07,2013-02-14 19:48:00,
2013-02-14 21:54:00,47.1,44.3,29.74,WSW,249,0.0,4.0,90,0.04, ,SKC,-99.99,VWS V12.07,2013-02-14 19:54:00,
2013-02-14 21:59:00,47.1,44.3,29.74,SW,232,0.0,4.0,90,0.04, ,SKC,-99.99,VWS V12.07,2013-02-14 19:59:00,
2013-02-14 22:04:00,47.1,44.3,29.74,SSW,212,2.2,3.1,90,0.00, ,SKC,-99.99,VWS V12.07,2013-02-14 20:04:00,
2013-02-14 22:09:00,46.9,44.2,29.74,SW,233,3.6,5.4,90,0.00, ,SKC,-99.99,VWS V12.07,2013-02-14 20:09:00,
2013-02-14 22:14:00,46.9,44.2,29.74,SW,234,0.0,5.4,90,0.00, ,SKC,-99.99,VWS V12.07,2013-02-14 20:14:00,
2013-02-14 22:20:00,46.9,44.2,29.74,SSW,196,0.0,0.0,90,0.00, ,SKC,-99.99,VWS V12.07,2013-02-14 20:20:00,
2013-02-14 22:26:00,46.9,43.9,29.74,SW,230,0.0,3.6,89,0.00, ,SKC,-99.99,VWS V12.07,2013-02-14 20:26:00,
2013-02-14 22:31:00,46.9,43.9,29.74,SW,230,0.0,3.6,89,0.00, ,SKC,-99.99,VWS V12.07,2013-02-14 20:31:00,
2013-02-14 22:36:00,46.9,43.9,29.74,WSW,244,4.0,4.0,89,0.00, ,SKC,-99.99,VWS V12.07,2013-02-14 20:36:00,
2013-02-14 22:41:00,46.9,43.9,29.74,SW,235,2.7,3.1,89,0.00, ,SKC,-99.99,VWS V12.07,2013-02-14 20:41:00,
2013-02-14 22:46:00,46.9,43.9,29.74,South,190,0.0,5.4,89,0.00, ,SKC,-99.99,VWS V12.07,2013-02-14 20:46:00,
2013-02-14 22:51:00,46.9,43.9,29.74,SSW,209,4.0,5.4,89,0.00, ,SKC,-99.99,VWS V12.07,2013-02-14 20:51:00,
2013-02-14 22:56:00,46.9,43.9,29.74,SW,236,0.0,5.4,89,0.00, ,SKC,-99.99,VWS V12.07,2013-02-14 20:56:00,
2013-02-14 23:02:00,46.9,43.9,29.74,SW,226,2.2,2.7,89,0.00, ,SKC,-99.99,VWS V12.07,2013-02-14 21:02:00,
2013-02-14 23:08:00,46.9,43.6,29.74,SW,224,4.0,4.9,88,0.00, ,SKC,-99.99,VWS V12.07,2013-02-14 21:08:00,
2013-02-14 23:13:00,46.9,43.6,29.74,South,189,4.0,5.4,88,0.00, ,SKC,-99.99,VWS V12.07,2013-02-14 21:13:00,
2013-02-14 23:18:00,46.9,43.3,29.74,SW,234,0.0,5.4,87,0.00, ,SKC,-99.99,VWS V12.07,2013-02-14 21:18:00,
2013-02-14 23:23:00,46.9,43.3,29.74,WSW,240,0.0,0.0,87,0.00, ,SKC,-99.99,VWS V12.07,2013-02-14 21:23:00,
2013-02-14 23:28:00,46.9,43.3,29.74,SW,234,0.0,0.0,87,0.00, ,SKC,-99.99,VWS V12.07,2013-02-14 21:28:00,
2013-02-14 23:33:00,46.9,43.3,29.74,SW,234,0.0,0.0,87,0.00, ,SKC,-99.99,VWS V12.07,2013-02-14 21:33:00,
2013-02-14 23:38:00,46.9,43.0,29.74,SW,228,0.0,0.0,86,0.00, ,SKC,-99.99,VWS V12.07,2013-02-14 21:38:00,
2013-02-14 23:43:00,46.8,42.8,29.74,SW,234,0.0,0.0,86,0.00, ,SKC,-99.99,VWS V12.07,2013-02-14 21:43:00,
2013-02-14 23:48:00,46.8,42.8,29.74,SW,233,3.1,3.6,86,0.00, ,SKC,-99.99,VWS V12.07,2013-02-14 21:48:00,
2013-02-14 23:53:00,46.8,42.8,29.74,SW,222,0.0,4.0,86,0.00, ,SKC,-99.99,VWS V12.07,2013-02-14 21:53:00,
2013-02-14 23:58:00,46.8,42.5,29.74,SW,215,2.2,4.0,85,0.00, ,SKC,-99.99,VWS V12.07,2013-02-14 21:58:00,